This is the latest recevied weather packets stored in our database for station/object KB1JL-13. If no packets are shown the sender has not sent any weather packets the latest 10 day(s).
| Time | Temp. | Humidity | Pressure | Rain* | Wind** | Luminosity | Snow |
|---|---|---|---|---|---|---|---|
| 1777589451 | 12.22° C | 99% | 1018.9 hPa | 1.27 mm | - | 8 W/m² | - |
| 1777589146 | 12.22° C | 98% | 1018.9 hPa | 0 mm | - | 27 W/m² | - |
| 1777588842 | 12.22° C | 98% | 1018.5 hPa | 0 mm | - | 38 W/m² | - |
| 1777588539 | 12.22° C | 98% | 1018.5 hPa | 0 mm | - | 45 W/m² | - |
| 1777588234 | 12.22° C | 97% | 1018.5 hPa | 3.05 mm | - | 38 W/m² | - |
| 1777587929 | 12.22° C | 96% | 1018.5 hPa | 4.83 mm | - | 24 W/m² | - |
| 1777587626 | 12.78° C | 95% | 1018.5 hPa | 1.78 mm | - | 15 W/m² | - |
| 1777587321 | 12.78° C | 93% | 1018.2 hPa | 0 mm | - | 31 W/m² | - |
| 1777587016 | 12.78° C | 92% | 1018.2 hPa | 0 mm | - | 23 W/m² | - |
| 1777586712 | 12.78° C | 91% | 1018.5 hPa | 0 mm | - | 44 W/m² | - |
| 1777586408 | 12.78° C | 91% | 1018.2 hPa | 0 mm | - | 71 W/m² | - |
| 1777586107 | 12.78° C | 92% | 1018.2 hPa | 0 mm | - | 61 W/m² | - |
| 1777585805 | 12.78° C | 92% | 1018.2 hPa | 0 mm | - | 65 W/m² | - |
| 1777585500 | 12.78° C | 92% | 1018.2 hPa | 0 mm | - | 107 W/m² | - |
| 1777585196 | 12.78° C | 91% | 1018.5 hPa | 0 mm | - | 123 W/m² | - |
| 1777584891 | 12.78° C | 91% | 1018.2 hPa | 0 mm | - | 146 W/m² | - |
| 1777584590 | 12.78° C | 92% | 1018.2 hPa | 0 mm | - | 152 W/m² | - |
| 1777584286 | 12.22° C | 93% | 1018.2 hPa | 0 mm | - | 118 W/m² | - |
| 1777583981 | 12.22° C | 93% | 1018.2 hPa | 0 mm | - | 82 W/m² | - |
| 1777583676 | 12.22° C | 93% | 1018.2 hPa | 0 mm | - | 62 W/m² | - |
| 1777583376 | 12.22° C | 94% | 1017.8 hPa | 0 mm | - | 102 W/m² | - |
| 1777583075 | 12.22° C | 94% | 1017.5 hPa | 0 mm | - | 63 W/m² | - |
| 1777582772 | 12.22° C | 94% | 1018.2 hPa | 0 mm | - | 64 W/m² | - |
| 1777582467 | 12.22° C | 94% | 1017.8 hPa | 0 mm | - | 96 W/m² | - |
| 1777582162 | 11.67° C | 94% | 1017.5 hPa | 0 mm | - | 110 W/m² | - |
* Rain latest hour (hover to see other rain measurements)
** Current wind speed in m/s (hover to see current wind gust speed)